Regional Weather Roundup
Issued by NWS

Home | Current Version | Previous Version | Graphics & Text | Print | Product List | Glossary On
Versions: 1 2 3 4 5 6 7 8 9 10 11 12 13 14 15 16 17 18 19 20 21 22 23 24 25 26 27 28 29 30 31 32 33 34 35 36 37 38 39 40 41 42 43 44 45 46 47 48 49 50
000
ASUS43 KBIS 220302
RWRND

NORTH DAKOTA REGIONAL WEATHER ROUNDUP
NATIONAL WEATHER SERVICE BISMARCK ND
900 PM CST SAT JAN 21 2017

NOTE: "FAIR" INDICATES FEW OR NO CLOUDS BELOW 12,000 FEET WITH NO
SIGNIFICANT WEATHER AND/OR OBSTRUCTIONS TO VISIBILITY.


NDZ001>003-009>011-017-220400-
NORTHWEST NORTH DAKOTA

CITY           SKY/WX    TMP DP  RH WIND       PRES   REMARKS
WILLISTON      CLOUDY    30  27  88 NW7       29.55R
MINOT          CLOUDY    27  24  89 SW6       29.52R
MINOT AFB      CLOUDY    28  26  92 W7        29.51R
$$

NDZ018>021-031>035-040>046-220400-
SOUTHWEST NORTH DAKOTA

CITY           SKY/WX    TMP DP  RH WIND       PRES   REMARKS
BISMARCK       FAIR      25  23  92 CALM      29.55R
DICKINSON      FAIR      21  16  81 W12       29.52R WCI   9
GARRISON         N/A     24  22  91 W7        29.52R WCI  16
HETTINGER ARPT CLEAR     20  17  88 NW12      29.56R WCI   8
$$

NDZ004>008-012>016-024-026-027-054-220400-
NORTHEAST NORTH DAKOTA

CITY           SKY/WX    TMP DP  RH WIND       PRES   REMARKS
GRAND FORKS    CLOUDY    35  32  88 CALM      29.54R
GRND FRKS AFB  FOG       33  33  99 CALM      29.54S VSB 1/2
DEVILS LAKE    CLOUDY    33  32  96 SW3       29.53R FOG
$$

NDZ022-023-025-028>030-036>039-047>053-220400-
SOUTHEAST NORTH DAKOTA

CITY           SKY/WX    TMP DP  RH WIND       PRES   REMARKS
FARGO          CLOUDY    37  34  89 CALM      29.53R FOG
JAMESTOWN      CLOUDY    33  31  92 W5        29.52R
$$




USA.gov is the U.S. government's official web portal to all federal, state and local government web resources and services.